Location: Newport
(44.6370°N, 124.0520°W)
Time: 00:47:09
(UTC-07:00)

Vanguard 1 Rocket - All Passes

Search period start: 22 June 2018 00:00
Search period end: 02 July 2018 00:00
Orbit: 653 x 4224 km, 34.3° (Epoch: 21 June)

Date Brightness Start Highest point End Pass type
(mag) Time Alt. Az. Time Alt. Az. Time Alt. Az.
22 Jun - 17:39:33 10° SSW 17:42:54 21° SSE 17:46:48 10° ESE daylight
22 Jun - 20:02:28 10° WSW 20:07:02 31° S 20:13:58 10° ESE daylight
22 Jun - 22:26:46 10° WSW 22:32:18 22° SSW 22:40:38 10° SSE visible
23 Jun - 16:30:15 10° S 16:32:30 14° SSE 16:34:45 10° SE daylight
23 Jun - 18:52:25 10° SW 18:56:24 28° S 19:01:45 10° ESE daylight
23 Jun - 21:16:09 10° WSW 21:21:03 25° S 21:28:32 10° SE daylight
23 Jun - 23:43:30 10° SW 23:47:00 12° SSW 23:51:14 10° S visible
24 Jun - 17:42:24 10° SW 17:45:55 23° SSE 17:49:57 10° ESE daylight
24 Jun - 20:05:50 10° WSW 20:10:08 27° S 20:16:24 10° SE daylight
24 Jun - 22:31:02 10° SW 22:35:25 16° SSW 22:41:21 10° SSE visible
25 Jun - 16:32:29 10° SSW 16:35:28 17° SSE 16:38:27 10° ESE daylight
25 Jun - 18:55:37 10° WSW 18:59:28 26° S 19:04:31 10° SE daylight
25 Jun - 21:19:56 10° WSW 21:24:11 19° SSW 21:30:09 10° SSE daylight
26 Jun - 15:22:58 10° S 15:24:56 12° SSE 15:26:46 10° SE daylight
26 Jun - 17:45:23 10° SW 17:48:58 24° S 17:53:01 10° ESE daylight
26 Jun - 20:09:21 10° WSW 20:13:15 22° S 20:18:37 10° SE daylight
26 Jun - 22:37:12 10° SSW 22:38:34 10° SSW 22:40:01 10° SSW visible
27 Jun - 16:35:04 10° SW 16:38:31 20° S 16:41:51 10° ESE daylight
27 Jun - 18:58:55 10° WSW 19:02:35 24° S 19:07:10 10° SE daylight
27 Jun - 21:24:16 10° SW 21:27:19 14° SSW 21:31:07 10° S daylight
28 Jun - 15:24:42 10° SSW 15:27:58 16° SSE 15:30:50 10° SE daylight
28 Jun - 17:48:29 10° SW 17:52:03 24° S 17:55:59 10° SE daylight
28 Jun - 20:13:06 10° SW 20:16:22 17° SSW 20:20:31 10° SSE daylight
29 Jun - 14:14:34 10° S 14:17:16 13° SSE 14:19:35 10° SE daylight
29 Jun - 16:37:51 10° SW 16:41:35 23° S 16:45:07 10° ESE daylight
29 Jun - 19:02:22 10° WSW 19:05:40 20° S 19:09:38 10° SE daylight
30 Jun - 15:27:00 10° SW 15:31:03 21° S 15:34:26 10° ESE daylight
30 Jun - 17:51:40 10° WSW 17:55:08 22° S 17:58:50 10° SE daylight
30 Jun - 20:17:33 10° SW 20:19:29 12° SSW 20:21:39 10° S daylight
01 Jul - 14:16:00 10° SSW 14:20:23 18° SSE 14:23:47 10° SE daylight
01 Jul - 16:40:45 10° SW 16:44:40 24° S 16:48:15 10° SE daylight
01 Jul - 19:06:03 10° SW 19:08:45 15° SSW 19:11:49 10° SSE daylight
